1998-067WU

Last updated on Thu Sep 05 2024 00:02:08 GMT+0000 (Coordinated Universal Time)

1 60954U 98067WU 24247.60248306 .00115501 00000+0 19272-2 0 9997 2 60954 51.6391 286.8206 0013428 314.7580 45.2651 15.50985581 818
UTC large
Height (km)
Speed (km/s)
/
Latitude / Longitude
Inclination (degrees)
Orbital Period (minutes)
Azimuth
Elevation
Range (km)
Doppler Factor

Next 0 passes for location: London (51.5072 / 0.1276)

Sorry there are no passes over London.